PST,Max TemperatureF,Mean TemperatureF,Min TemperatureF,Max Dew PointF,MeanDew PointF,Min DewpointF,Max Humidity, Mean Humidity, Min Humidity, Max Sea Level PressureIn, Mean Sea Level PressureIn, Min Sea Level PressureIn, Max VisibilityMiles, Mean VisibilityMiles, Min VisibilityMiles, Max Wind SpeedMPH, Mean Wind SpeedMPH, Max Gust SpeedMPH,PrecipitationIn, CloudCover, Events, WindDirDegrees
2013-2-1,53,40,28,39,34,27,96,83,57,30.45,30.37,30.28,10,10,10,7,3,,0.00,0,,160
2013-2-2,48,34,21,37,29,21,100,91,63,30.48,30.42,30.28,10,5,0,8,2,,0.00,1,Fog,149
2013-2-3,43,34,24,36,29,23,100,94,76,30.28,30.23,30.15,10,4,0,6,1,,0.00,2,Fog,152
2013-2-4,50,42,33,38,36,32,96,81,61,30.17,30.08,29.92,10,10,3,8,2,,0.00,5,,82
2013-2-5,54,42,30,39,34,30,100,82,53,30.01,29.92,29.89,10,7,0,14,3,,0.00,4,Fog,230
2013-2-6,54,43,32,36,32,27,82,65,47,30.11,30.02,29.87,10,10,10,9,7,,0.00,1,,136
2013-2-7,46,34,23,35,30,21,92,71,50,30.10,29.98,29.87,10,10,10,15,6,21,0.00,5,,214
2013-2-8,46,35,24,29,25,22,92,74,42,30.21,30.17,30.11,10,10,10,8,3,,0.00,3,,174
2013-2-9,48,34,19,32,26,18,92,79,54,30.23,30.17,30.11,10,10,10,8,3,,0.00,0,,215
2013-2-10,50,36,23,33,27,22,96,78,44,30.32,30.26,30.23,10,9,2,7,2,,0.00,0,,166
2013-2-11,50,38,25,34,30,22,92,74,54,30.29,30.24,30.21,10,10,10,12,5,16,0.00,1,,211
2013-2-12,55,46,37,40,36,33,86,66,55,30.36,30.31,30.28,10,10,10,20,11,29,0.00,3,,243
2013-2-13,55,47,37,37,35,32,79,59,42,30.43,30.31,30.27,10,10,10,25,15,31,0.00,2,,237
2013-2-14,54,40,25,37,32,24,96,79,53,30.53,30.49,30.43,10,10,10,7,3,,0.00,2,,175
2013-2-15,55,38,21,39,30,21,100,85,51,30.53,30.44,30.27,10,7,1,9,3,,0.00,0,,116
2013-2-16,55,40,24,39,30,23,100,77,42,30.26,30.15,30.05,10,7,2,25,6,33,0.00,1,,219
2013-2-17,51,40,26,29,26,22,84,59,36,30.19,30.15,30.12,10,10,10,16,11,23,0.00,0,,232
2013-2-18,45,34,24,32,27,21,91,72,52,30.11,29.94,29.78,10,10,10,6,2,,0.00,3,,168
2013-2-19,46,36,26,32,29,23,96,78,54,29.95,29.81,29.74,10,10,6,8,3,,0.00,6,,143
2013-2-20,50,36,21,31,26,19,93,71,41,30.06,30.01,29.96,10,8,2,13,4,22,0.00,1,,229
2013-2-21,48,37,26,32,29,22,85,67,50,30.09,30.07,30.04,10,10,10,23,9,32,0.00,5,,218
2013-2-22,52,44,35,39,33,27,78,64,54,30.06,29.92,29.78,10,10,9,22,11,32,0.05,6,Rain,226
2013-2-23,51,44,36,30,28,26,70,58,43,30.33,30.11,29.91,10,10,10,25,17,33,0.00,1,,243
2013-2-24,48,38,28,28,26,23,82,62,44,30.38,30.28,30.06,10,10,10,17,8,26,0.00,2,,208
2013-2-25,51,40,30,35,29,25,93,65,41,30.26,30.10,29.96,10,10,7,32,12,44,0.03,2,Rain,239
2013-2-26,51,38,24,28,25,19,81,58,35,30.37,30.30,30.23,10,10,10,13,8,,0.00,1,,210
2013-2-27,57,42,28,39,30,22,81,58,37,30.33,30.27,30.24,10,10,10,9,5,,0.00,3,Rain,202
2013-2-28,52,48,43,48,43,38,93,86,79,30.37,30.29,30.23,10,10,6,8,3,,0.13,8,Rain,152